Change the Weather History Date:

Sunday, July 21, 2013

  Actual Average Record
Temperature  
Mean Temperature 84 °F -  
Max Temperature 89 °F 87 °F 91 °F (1997)
Min Temperature 79 °F 79 °F 75 °F (2005)
Cooling Degree Days 19    
Growing Degree Days 34 (Base 50)    
Moisture  
Dew Point 80 °F    
Average Humidity 84    
Maximum Humidity 89    
Minimum Humidity 77    
Precipitation  
Precipitation 0.00 in - - ()
Sea Level Pressure  
Sea Level Pressure 30.02 in    
Wind  
Wind Speed 8 mph ()    
Max Wind Speed 13 mph    
Max Gust Speed -    
Visibility 6.2 miles    
Events      
Averages and records for this station are not official NWS values.
T = Trace of Precipitation, MM = Missing Value Source: Averaged Metar Reports

Daily Weather History Graph

Daily Weather History Graph

Search for Another Location

Airport or City:

Trip Planner

Search our weather history database for the weather conditions in past years. The results will help you decide how hot, cold, wet, or windy it might be!

Date:

Astronomy

Jul. 21, 2013 Rise Set
Actual Time 5:58 AM EST 7:05 PM EST
Civil Twilight 5:34 AM EST 7:29 PM EST
Nautical Twilight 5:06 AM EST 7:57 PM EST
Astronomical Twilight 4:37 AM EST 8:26 PM EST
Moon 6:07 PM EST (7/21) 4:39 AM EST (7/21)
Length of Visible Light 13h 54m
Length of Day
13h 07m
Waxing Gibbous, 98% of the Moon is Illuminated
Jul 21
Waxing Gibbous
Jul 22
Full
Jul 29
Last Quarter
Aug 6
New
Aug 14
First Quarter

Hourly Weather History & Observations

Time (EST) Temp. Heat Index Dew Point Humidity Pressure Visibility Wind Dir Wind Speed Gust Speed Precip Events Conditions
6:00 AM 82.4 °F 92.4 °F 78.8 °F 89% 30.01 in 6.2 mi East 6.9 mph - N/A   Partly Cloudy
7:00 AM 82 °F - 78 °F 84% 30.03 in 6 mi East 5.8 mph - -   Scattered Clouds
7:00 AM 82.4 °F 92.4 °F 78.8 °F 89% 30.01 in 6.2 mi East 5.8 mph - N/A   Partly Cloudy
8:00 AM 84.2 °F 96.1 °F 78.8 °F 84% 30.04 in 6.2 mi East 8.1 mph - N/A   Partly Cloudy
9:00 AM 86.0 °F 99.3 °F 78.8 °F 79% 30.04 in 6.2 mi East 10.4 mph - N/A   Partly Cloudy
10:00 AM 87.8 °F 104.9 °F 80.6 °F 79% 30.04 in 6.2 mi East 9.2 mph - N/A   Scattered Clouds
11:00 AM 87.8 °F 108.2 °F 82.4 °F 84% 30.04 in 6.2 mi ENE 11.5 mph - N/A   Partly Cloudy
12:00 PM 87.8 °F 108.2 °F 82.4 °F 84% 30.04 in 6.2 mi ENE 12.7 mph - N/A   Partly Cloudy
1:00 PM 86 °F - 82 °F 85% 30.04 in 6 mi ENE 11.5 mph - -   Scattered Clouds
1:00 PM 86.0 °F 104.7 °F 82.4 °F 89% 30.04 in 6.2 mi ENE 11.5 mph - N/A   Partly Cloudy
2:00 PM 86.0 °F 104.7 °F 82.4 °F 89% 30.01 in 6.2 mi ENE 11.5 mph - N/A   Scattered Clouds
3:00 PM 87.8 °F 108.2 °F 82.4 °F 84% 29.98 in 6.2 mi East 6.9 mph - N/A   Scattered Clouds
4:00 PM 87.8 °F 108.2 °F 82.4 °F 84% 29.98 in 6.2 mi East 8.1 mph - N/A   Scattered Clouds
5:00 PM 86.0 °F 99.3 °F 78.8 °F 79% 29.98 in 6.2 mi East 8.1 mph - N/A   Scattered Clouds
6:00 PM 86.0 °F 99.3 °F 78.8 °F 79% 29.98 in 6.2 mi East 9.2 mph - N/A   Partly Cloudy
7:00 PM 85 °F - 79 °F 77% 30.01 in 6 mi ENE 10.4 mph - -   Scattered Clouds
7:00 PM 84.2 °F 96.1 °F 78.8 °F 84% 30.01 in 6.2 mi ENE 10.4 mph - N/A   Partly Cloudy
8:00 PM 84.2 °F 96.1 °F 78.8 °F 84% 30.01 in 6.2 mi ENE 9.2 mph - N/A   Partly Cloudy
9:00 PM 84.2 °F 96.1 °F 78.8 °F 84% 30.01 in 6.2 mi East 8.1 mph - N/A   Partly Cloudy
10:00 PM 84.2 °F 96.1 °F 78.8 °F 84% 30.04 in 6.2 mi East 9.2 mph - N/A   Partly Cloudy